Location: Amos
(48.5670°N, 78.1170°W)
Time: 09:51:04
(UTC-05:00)

NOAA 19 - Visible Passes

Search period start: 18 January 2020 00:00
Search period end: 28 January 2020 00:00
Orbit: 840 x 862 km, 99.2° (Epoch: 17 January)

Date Brightness Start Highest point End Pass type
(mag) Time Alt. Az. Time Alt. Az. Time Alt. Az.
18 Jan 6.5 05:34:52 10° NNE 05:40:02 41° E 05:45:09 10° SSE visible
18 Jan 5.8 07:15:43 10° N 07:20:37 35° WNW 07:25:30 10° SW visible
18 Jan 8.4 18:49:56 10° WSW 18:52:05 12° W 18:54:14 10° WNW visible
19 Jan 6.9 05:23:20 10° NNE 05:28:15 33° E 05:33:08 10° SSE visible
19 Jan 5.5 07:03:53 10° N 07:09:01 42° WNW 07:14:06 10° SW visible
19 Jan 8.2 18:37:01 10° SW 18:40:13 16° W 18:43:25 10° NW visible
20 Jan 7.3 05:11:52 10° NE 05:16:27 27° E 05:21:00 10° SSE visible
20 Jan 5.3 06:52:06 10° N 06:57:23 52° WNW 07:02:39 10° SW visible
20 Jan 8.1 18:24:28 10° SW 18:28:21 19° W 18:32:15 10° NW visible
21 Jan 7.6 05:00:29 10° NE 05:04:37 22° E 05:08:45 10° SE visible
21 Jan 5.2 06:40:20 10° N 06:45:44 64° WNW 06:51:07 10° SSW visible
21 Jan 7.7 18:12:08 10° SW 18:16:31 24° W 18:20:55 10° NW visible
22 Jan 7.9 04:49:13 10° NE 04:52:47 17° E 04:56:19 10° SE visible
22 Jan 5.1 06:28:36 10° NNE 06:34:05 78° WNW 06:39:32 10° SSW visible
22 Jan 7.4 17:59:57 10° SSW 18:04:43 30° W 18:09:29 10° NW visible
23 Jan 8.2 04:38:11 10° ENE 04:40:55 14° E 04:43:37 10° ESE visible
23 Jan 5.2 06:16:53 10° NNE 06:22:23 86° ESE 06:27:51 10° SSW visible
23 Jan 7.0 17:47:52 10° SSW 17:52:55 36° W 17:57:59 10° NNW visible
24 Jan 8.4 04:27:50 10° ENE 04:29:01 11° E 04:30:13 10° E visible
24 Jan 5.5 06:05:12 10° NNE 06:10:41 70° ESE 06:16:07 10° S visible
24 Jan 6.6 17:35:54 10° S 17:41:09 45° W 17:46:25 10° NNW visible
25 Jan 5.9 05:53:34 10° NNE 05:58:57 56° ESE 06:04:18 10° S visible
25 Jan 6.1 17:24:01 10° S 17:29:24 56° WSW 17:34:49 10° NNW visible
26 Jan 6.3 05:41:57 10° NNE 05:47:12 45° E 05:52:25 10° S visible
26 Jan 8.6 18:58:11 10° W 18:59:20 11° W 19:00:30 10° WNW visible
27 Jan 6.7 05:30:23 10° NNE 05:35:26 37° E 05:40:26 10° SSE visible
27 Jan 5.7 07:11:05 10° N 07:16:06 38° WNW 07:21:07 10° SW visible
27 Jan 8.3 18:44:44 10° WSW 18:47:27 14° W 18:50:10 10° WNW visible
